Location: Bemmer
(51.5498°N, 5.6249°E)
Time: 02:31:16
(UTC+00:00)

Meteor 1-11 Rocket - Pass Details

Date: 03 March 2021
Orbit: 831 x 916 km, 81.2° (Epoch: 13 April)

Event Time Altitude Azimuth Distance (km) Brightness Sun altitude
Rises 19:24:59 0° 181° (S) 3,461 6.7 -19.8°
Reaches altitude 10° 19:27:27 10° 179° (S) 2,514 6.0 -20.2°
Maximum altitude 19:33:06 66° 98° (E) 934 3.6 -21.0°
Drops below altitude 10° 19:38:39 10° 17° (NNE) 2,479 6.1 -21.9°
Sets 19:41:04 0° 15° (NNE) 3,409 6.9 -22.2°
